Regional Weather Roundup
Issued by NWS

Home | Current Version | Previous Version | Graphics & Text | Print | Product List | Glossary On
Versions: 1 2 3 4 5 6 7 8 9 10 11 12 13 14 15 16 17 18 19 20 21 22 23 24 25 26 27 28 29 30 31 32 33 34 35 36 37 38 39 40 41 42 43 44 45 46 47 48 49 50
000
ASUS43 KMPX 011601
RWRMN
WEATHER ROUNDUP FOR MINNESOTA
NATIONAL WEATHER SERVICE TWIN CITIES/CHANHASSEN MN
1100 AM CDT WED OCT 01 2014


NOTE: "FAIR" INDICATES FEW OR NO CLOUDS BELOW 12,000 FEET WITH NO
SIGNIFICANT WEATHER AND/OR OBSTRUCTIONS TO VISIBILITY. N/A MEANS
CURRENT SKY AND/OR WEATHER CONDITIONS ARE NOT AVAILABLE.

MNZ060>063-068>070-011700-
   Twin Cities Metro

CITY           SKY/WX    TMP DP  RH WIND       PRES   REMARKS
TWIN CITIES    RAIN      50  48  93 SE10      29.83S FOG
ST PAUL        RAIN      50  49  96 SE15      29.84S FOG
CRYSTAL        LGT RAIN  52  48  86 SE8       29.81S
LAKEVILLE      HVY RAIN  48  48 100 E3        29.82F
EDEN PRAIRIE   LGT RAIN  51  50  96 SE9       29.81S FOG
SOUTH ST PAUL  RAIN      50  48  93 SE8       29.84S
LAKE ELMO      RAIN      50  48  93 S7        29.85S
$$
MNZ001>005-007-008-013>017-022>024-027-028-011700-
   Northwest Minnesota

CITY           SKY/WX    TMP DP  RH WIND       PRES   REMARKS
BEMIDJI        CLOUDY    55  51  88 S14       29.70F
HALLOCK        MOSUNNY   61  54  77 S15G22    29.55S
ROSEAU         CLOUDY    61  54  77 S20G28    29.58S
WARROAD        CLOUDY    61  55  82 S10G23    29.59F
THIEF RVR FALL PTSUNNY   63  54  72 S20G25    29.62S
CROOKSTON      MOSUNNY   63  54  72 S17       29.63R
FOSSTON        CLOUDY    61  55  82 S13G25    29.66S
DETROIT LAKES  CLOUDY    61  55  82 S13       29.71R
PARK RAPIDS    CLOUDY    53  51  93 S14       29.73S
MAHNOMEN       CLOUDY    63  57  82 S12G18    29.67S
$$
MNZ006-009>011-018-025>026-011700-
   North Central Minnesota

CITY           SKY/WX    TMP DP  RH WIND       PRES   REMARKS
BAUDETTE       CLOUDY    57  52  83 S12G20    29.65S
FLAG ISLAND    CLOUDY    57  54  88 S25       29.57F
INTL FALLS     CLOUDY    52  47  83 S9G20     29.73S
WASKISH        CLOUDY    55  52  88 SE10G16   29.69S
BIG FORK       CLOUDY    52  46  82 S9G16     29.76F
LONGVILLE      CLOUDY    52  48  87 S12       29.76F
GRAND RAPIDS   CLOUDY    48  45  87 SE13G20   29.79S
CRANE LAKE     CLOUDY    52  46  82 S10G20    29.80S
ORR            CLOUDY    50  45  81 S10G22    29.76F
COOK           CLOUDY    50  46  87 SE9       29.80F
WALKER         CLOUDY    51  49  92 S9        29.74S
$$
MNZ012-019>021-037-011700-
   Northeast Minnesota

CITY           SKY/WX    TMP DP  RH WIND       PRES   REMARKS
DULUTH         LGT RAIN  48  46  93 SE12      29.85S FOG
ELY            LGT RAIN  46  45  93 S7        29.83F
HIBBING        CLOUDY    50  46  86 S10       29.82F FOG
EVELETH        CLOUDY    50  46  87 S9        29.83F
DULUTH HARBOR  RAIN      48  46  93 CALM      29.88S
TWO HARBORS    LGT RAIN  46  41  81 E7        29.86F
SILVER BAY     RAIN      45  45 100 CALM      29.87S
GRAND MARAIS     N/A     50  46  86 SE3       29.91F
G MARAIS ARPRT CLOUDY    43  41  93 SE8       29.90F
$$
MNZ029>031-032-039>041-046>048-054>057-064-011700-
   West Central Minnesota

CITY           SKY/WX    TMP DP  RH WIND       PRES   REMARKS
FERGUS FALLS   CLOUDY    61  55  82 S14       29.71S
WHEATON        PTSUNNY   64  57  77 SW8       29.71S
MORRIS         CLOUDY    61  57  88 S14       29.71S FOG
ALEXANDRIA     CLOUDY    55  54  96 SE13      29.74F FOG
ELBOW LAKE     CLOUDY    58  56  93 S13       29.71S
WADENA         CLOUDY    54  52  94 SE12      29.73S
GLENWOOD       CLOUDY    55  54  94 SE12      29.74F FOG
APPLETON       PTSUNNY   66  57  72 S12       29.71S
BENSON         CLOUDY    59  57  94 S10       29.72F FOG
ORTONVILLE     PTSUNNY   64  61  88 S6        29.70S
MADISON        PTSUNNY   68  63  83 S7        29.71S
WILLMAR        PTSUNNY   61  55  82 SE9       29.76F
$$
MNZ033>034-036-042>043-049>051-058-059-011700-
   Central Minnesota

CITY           SKY/WX    TMP DP  RH WIND       PRES   REMARKS
ST CLOUD       CLOUDY    54  50  86 SE13      29.79F
SAUK CENTRE    CLOUDY    52  51  97 SE9       29.76F FOG
PAYNESVILLE    CLOUDY    52  51  95 E6        29.78R
AITKIN         CLOUDY    52  46  82 SE14      29.78F HAZE
PINE RIVER     CLOUDY    52  48  87 SE10G18   29.80F
BRAINERD       CLOUDY    49  48  97 S7G17     29.78F FOG
STAPLES        CLOUDY    50  48  93 S8        29.75F
LONG PRAIRIE   CLOUDY    50  50 100 SE9       29.76F FOG
LITTLE FALLS   CLOUDY    52  46  82 SE12      29.78F
LITCHFIELD     CLOUDY    55  54  94 SE9       29.79S
BUFFALO        CLOUDY    52  49  90 SE8       29.81F
MAPLE LAKE     CLOUDY    53  51  94 SE7       29.81F
$$
MNZ037-044-045-052-053-011700-
   East Central Minnesota

CITY           SKY/WX    TMP DP  RH WIND       PRES   REMARKS
PRINCETON      CLOUDY    52  50  93 SE8       29.81F
MORA           LGT RAIN  46  45  93 CALM      29.85S
CAMBRIDGE      DRIZZLE   52  45  76 SE8       29.80F
RUSH CITY      LGT RAIN  48  47  94 SE6       29.83F
MOOSE LAKE     RAIN      48  46  93 CALM      29.82F
HINCKLEY       LGT RAIN  50  48  93 SE8       29.84F
CLOQUET        LGT RAIN  48  46  93 SE5       29.84F
MCGREGOR       CLOUDY    48  46  93 S12       29.82S
$$
MNZ071>073-080-081-089-090-097-098-011700-
   Southwest Minnesota

CITY           SKY/WX    TMP DP  RH WIND       PRES   REMARKS
MONTEVIDEO     PTSUNNY   61  61 100 S9        29.73F FOG
GRANITE FALLS  CLOUDY    63  57  82 SE9       29.75F
CANBY          CLOUDY    66  61  82 S5        29.73S
MARSHALL       CLOUDY    64  57  77 S12       29.73S
REDWOOD FALLS  CLOUDY    58  55  90 SE15      29.76S
OLIVIA         CLOUDY    59  54  82 SE13      29.76S
PIPESTONE      PTSUNNY   66  61  82 SW10      29.74F
WINDOM         FOG       55  55 100 SE8       29.78F VSB 3/4
WORTHINGTON    CLOUDY    61  57  88 SE9       29.77F
JACKSON        CLOUDY    55  54  94 SE9       29.79F FOG
TRACY          CLOUDY    65  59  81 SE10      29.75S
SLAYTON        PTSUNNY   66  59  77 SE8       29.76F
$$
MNZ065>067-074>077-082>085-091>093-011700-
   South Central Minnesota

CITY           SKY/WX    TMP DP  RH WIND       PRES   REMARKS
MANKATO        CLOUDY    52  46  82 SE13      29.80F
NEW ULM        CLOUDY    55  54  94 SE9       29.79F FOG
ST JAMES       LGT RAIN  55  54  94 SE3       29.80F
FAIRMONT       CLOUDY    54  48  82 SE7       29.79F
GLENCOE        LGT RAIN  54  53  96 SE8       29.80S
FARIBAULT      RAIN      52  50  93 SE6       29.82S
OWATONNA       DRIZZLE   52  50  93 SE13G18   29.81S
WASECA         DRIZZLE   50  46  87 SE9       29.81F
ALBERT LEA     LGT RAIN  52  52 100 SE14      29.80F
$$
MNZ078>079-086>088-094>096-011700-
   Southeast Minnesota

CITY           SKY/WX    TMP DP  RH WIND       PRES   REMARKS
ROCHESTER      HVY RAIN  50  49  96 SE15G25   29.83F VSB 1
RED WING       HVY RAIN  52  48  87 SE10G16   29.83F
STANTON        RAIN      51  48  90 SE5       29.81F
DODGE CENTER   RAIN      52  50  93 SE14      29.82S
WINONA         CLOUDY    52  50  93 SE8       29.86F
AUSTIN         LGT RAIN  52  48  87 SE7       29.82F
PRESTON        LGT RAIN  50  48  93 SE10      29.85F
$$
ABBREVIATIONS USED IN REMARKS
   TC - TEMPERATURES IN CELSIUS
  WCI - WIND CHILL INDEX
   HX - HEAT INDEX
  VSB - VISIBILITY
$$



USA.gov is the U.S. government's official web portal to all federal, state and local government web resources and services.